NOAA 16 DEB, 41536

Orbit data source: Space-Track

NOAA 16 DEB, 41536 is space debris in SSO originally from a launch on Thu, 21 Sep 2000 UTC launched from the Air Force Western Test Range (AFWTR). Debris objects in space refer to the collection of defunct objects orbiting the Earth. Examples of debris include non-operational satellites, rocket bodies, and fragments generated from explosions, collisions, or faulty payload assembly.

Loading next visibility...
Identifier
41536, 2000-055NL
Orbit
SSO
Country
Flag of USUS
Related business
Manufacturer
Unknown
Mission
Spacecraft
Bus & Motor
Unknown
Mass
Unknown
Launch date (UTC)
2000-09-21 (25 years ago)
Launch vehicle
Unknown
Launch site
Air Force Western Test Range (AFWTR)
Object type
Payload
Rocket body
Debris
Shape & HBR
Unknown shape, 0.1 m
Radar Cross Section
Small (<0.1 m²)

Expand to show TLE details & history
Last TLE update: 23 hours ago

TLE from 23 hours ago
0 NOAA 16 DEB
1 41536U 00055NL  25318.06850369  .00015831  00000-0  56201-2 0  9999
2 41536  98.7356  54.4496 0012744 109.4265 250.8298 14.34435060508597
Epoch: 2025-11-14T01:38Z
TLE epoch observation values (Epoch: 2025-11-14T01:38:38.718Z)
Latitude
-0.00001°
Longitude
-23.62903°
Altitude
782.883 km
Speed
7.461 km/s
True Right ascension
03h 37m 47s
True Declination
0° 00' 00"
Sunlit
Object was in full shadow at epoch
Visualization orbit readout
Latitude
Unknown
Longitude
Unknown
Altitude
Unknown
Speed
Unknown
Apparent Right ascension
Unknown
Apparent Declination
Unknown
Sunlit
N/A
Visualization observer readout
Local Sidereal Time
21:33:04
Azimuth
Unknown
Elevation
Unknown
Doppler factor
Unknown
Orbital elements
Apogee altitude
783.2 km
Perigee altitude
764.97 km
Semi-major axis
7,152.222 km
Eccentricity
0.00127
Inclination
98.7356°
RAAN
54.4496°
Arg. of periapsis
109.4265°
True anomaly
250.69193°
Mean anomaly
250.8298°
Eccentric anomaly
250.76086°
Mean motion
3.58824 °/min
Orbital period
100.33 mins
BSTAR
0.0056201
Loading maneuver chart data...
Computing Atmospheric mass density...

Documentation

Showing up to 5 results
|